Find Starlink 3652

NORAD ID: 51991 Int'l Des: 2022-025 Owner: SPXS Country: US Constellation: starlink operational
LEOCIRCULAR

リアルタイム位置

3D地球を読み込み中...

Starlink 3652について

説明を読み込み中...

次回通過

Passes for default location (London). Set your location on the main map for personalized predictions.

高度履歴

Loading altitude history...

軌道要素

1 51991U 22025AM 26106.06305202 .00000256 00000-0 34183-4 0 9995
2 51991 53.2176 231.3459 0001281 88.6081 271.5058 15.08836900226706
Epoch: Apr 16, 2026 • Age: 13 hours

現在のステータス

高度 545.5 km
速度 7.59 km/s
衛星直下点 -19.35°S, 157.25°E
打ち上げ日 Mar 9, 2022
運用期間 4.1 years
タイプ internet

技術仕様

分類 Payload
質量 297.00 kg
乾燥質量 275.00 kg
総質量 297.00 kg
長さ 0.20 m
直径 2.80 m
スパン 9.00 m
形状 Box + pan
製造者 SPXS
バスタイプ Starlink
フェーズステータス In Orbit
所有者/国 SPXS/US

Most Searched